Location: Mannens
(46.7945°N, 6.9681°E)
Time: 08:43:42
(UTC+00:00)

Daily predictions for brighter satellites

Satellite Brightness Start Highest point End
(mag) Time Altitude Azimuth Time Altitude Azimuth Time Altitude Azimuth
Meteor 2-20 4.5 16:17:06 10° S 16:23:13 76° E 16:29:23 10° NNE
ASTEX 1 3.6 16:18:28 10° N 16:23:29 81° W 16:28:27 10° S
ERBS 3.5 16:21:43 10° W 16:24:48 34° NNW 16:27:54 10° NE
Cosmos 1151 Rocket 4.1 16:22:45 10° SE 16:26:18 25° E 16:29:54 10° NNE
USA 215 4.1 16:21:09 10° ENE 16:27:02 37° N 16:32:56 10° WNW
Cosmos 1633 Rocket 3.3 16:27:03 10° N 16:31:21 47° ENE 16:35:36 10° SSE
Sich 1 3.0 16:27:48 10° N 16:32:12 78° E 16:36:36 10° SSE
CORIOLIS 4.4 16:27:30 10° SE 16:32:42 49° ENE 16:37:56 10° N
Cosmos 1689 Rocket 3.6 16:31:44 10° N 16:34:36 38° WNW 16:37:28 10° SW
Cosmos 2034 Rocket 4.3 16:28:58 10° N 16:35:07 47° ENE 16:41:14 10° SSE
NOSS 2-3 (E) 3.7 16:31:18 10° SSW 16:35:39 76° SE 16:40:48 10° NE
Helios 1A Rocket 4.2 16:31:46 10° S 16:35:46 47° W 16:39:48 10° NNW
USA 229 DEB 4.2 16:32:56 10° WSW 16:39:23 55° NW 16:46:13 10° NE
USA 229 4.2 16:33:01 10° WSW 16:39:30 56° NW 16:46:19 10° NE
SeaSat 1 3.4 16:35:36 10° ESE 16:39:39 26° NE 16:43:42 10° N
NOSS 3-1 (C) 4.0 16:35:28 10° WSW 16:40:59 54° NW 16:47:27 10° NE
Okean-O 3.1 16:37:07 10° SE 16:41:13 38° ENE 16:45:21 10° N
Cosmos 1606 4.4 16:39:09 10° ESE 16:41:17 15° E 16:43:08 11° NE
Cosmos 2221 4.4 16:39:09 10° SW 16:43:03 32° WNW 16:46:59 10° N
NOSS 3-1 (A) 3.6 16:38:56 10° SW 16:44:30 73° NW 16:51:03 10° NE
Cosmos 1328 Rocket 4.0 16:41:04 10° SSE 16:45:12 41° E 16:49:19 10° NNE
Cosmos 923 Rocket 4.0 16:40:12 10° SSW 16:45:25 89° WNW 16:50:40 10° NNE
NOSS 2-3 (D) 3.7 16:41:07 10° SW 16:45:29 84° SE 16:50:40 10° NE
Cosmos 1624 Rocket 4.1 16:42:43 10° NNW 16:48:01 57° ENE 16:53:14 10° SE
Cosmos 1666 Rocket 3.5 16:44:58 10° N 16:49:20 86° E 16:53:40 10° S
Cosmos 2056 Rocket 3.5 16:44:37 10° NNW 16:49:42 56° ENE 16:54:48 10° SE
Cosmos 1933 Rocket 4.3 16:46:21 10° N 16:50:14 31° ENE 16:54:06 10° SE
Cosmos 1980 Rocket 2.3 16:47:09 10° S 16:52:42 58° ESE 16:58:19 10° NNE
Cosmos 1515 Rocket 4.3 16:49:23 10° SSE 16:53:16 31° E 16:57:07 10° NNE
Cosmos 1356 Rocket 4.3 16:50:19 10° SSW 16:54:26 53° WNW 16:58:39 10° N
COSMO-SKYMED 1 3.6 16:52:27 10° NE 16:56:03 25° E 16:59:37 10° SSE
SL-16 R/B 3.5 16:52:21 10° SE 16:56:22 20° E 16:59:00 15° ENE
Okean O Rocket 3.7 16:52:34 10° SSW 16:56:29 31° W 17:00:23 10° NNW
Cosmos 2228 Rocket 4.2 16:54:25 10° SE 16:58:02 24° E 17:01:41 10° NE
CENTAUR R/B 4.0 16:53:33 10° NW 16:59:51 28° NNE 17:05:05 15° ENE
Cosmos 2227 Rocket 4.5 16:56:16 10° NW 17:01:03 29° WSW 17:05:49 10° SSW
Cosmos 2322 Rocket 3.5 16:57:40 10° SE 17:01:27 19° E 17:03:15 16° ENE
COBE Rocket 3.8 16:57:21 10° NNE 17:02:02 60° E 17:06:37 10° S
CZ-4 R/B 2.2 17:00:12 10° SE 17:03:44 29° ENE 17:07:12 10° N
Cosmos 1862 3.7 17:02:39 10° NNW 17:06:37 66° W 17:10:35 10° S
Tsikada Rocket 4.2 17:01:13 10° SSE 17:07:21 51° E 17:13:33 10° NNE
YAOGAN 6 3.1 17:06:38 10° SE 17:09:47 33° ENE 17:12:58 10° N
Envisat 3.0 17:06:45 10° SSE 17:11:46 63° ENE 17:16:48 10° N
Cosmos 1933 3.8 17:08:07 10° SSE 17:11:55 40° E 17:15:36 11° NNE
Cosmos 2263 Rocket 2.3 17:06:32 10° NNW 17:11:57 50° ENE 17:17:21 10° SE
Cosmos 44 4.3 17:09:01 10° NNW 17:12:25 21° NE 17:13:18 20° NE
Cosmos 158 Rocket 3.9 17:09:01 10° SSW 17:14:15 72° ESE 17:19:23 10° NNE
Meteor 2-11 Rocket 4.4 17:08:32 10° N 17:14:43 88° E 17:20:52 10° S
BREEZE-M DEB (TANK) 3.1 17:12:37 10° WSW 17:18:32 47° SSE 17:20:08 25° ESE
YAOGAN 1 3.1 17:14:47 10° SE 17:18:41 34° ENE 17:22:36 10° N
Cosmos 1464 Rocket 4.5 17:12:52 10° NNW 17:18:57 64° W 17:24:58 10° S
Lacrosse 4 Rocket 3.2 17:17:21 10° WSW 17:20:46 25° NW 17:24:11 10° N
H-2A R/B 3.6 17:17:12 10° S 17:20:57 53° W 17:24:40 10° NNW
Cosmos 1470 Rocket 3.5 17:16:27 10° N 17:20:58 85° E 17:25:26 10° S
SL-8 R/B 4.0 17:16:27 10° SW 17:21:10 56° SSE 17:23:44 26° E
NOSS 2-3 (C) 4.5 17:18:59 10° WSW 17:23:20 51° NW 17:27:46 14° NNE
ATLAS 3B R/B 3.8 17:19:38 10° NNW 17:24:55 24° NNE 17:27:20 20° NE
ATLAS 2AS CENTAUR R/B 4.3 17:22:45 10° SE 17:27:27 17° ESE 17:27:27 17° ESE
Cosmos 1420 Rocket 4.0 17:22:36 10° NNW 17:27:43 57° ENE 17:32:48 10° SE
Cosmos 1697 Rocket 3.7 17:23:51 10° SW 17:29:16 46° NW 17:34:43 10° NNE
ISS -2.1 17:27:21 10° S 17:29:53 21° SE 17:29:53 21° SE
Cosmos 2346 Rocket 4.4 17:24:44 10° S 17:30:57 87° E 17:37:09 10° N
USA 238 DEB 4.1 17:24:54 10° NW 17:31:44 47° NE 17:36:05 23° E
USA 238 4.1 17:25:00 10° NW 17:31:51 46° NE 17:36:08 23° E
APEX 3.8 17:29:42 10° SW 17:32:43 39° WNW 17:34:18 20° N
NOSS 3-2 (A) 4.3 17:26:54 10° NW 17:33:52 46° NE 17:38:34 24° E
Geosat 4.1 17:32:46 22° NE 17:35:53 57° ESE 17:40:49 10° SSW
CZ-4 R/B 4.3 17:32:07 10° SSE 17:36:13 69° ENE 17:40:23 10° N
Cosmos 1452 Rocket 3.6 17:32:46 10° NNW 17:37:59 55° ENE 17:43:10 10° SE
OPS 8737 4.4 17:34:29 10° SSW 17:38:23 60° SE 17:38:51 53° E
Cosmos 1869 Rocket 4.1 17:38:01 10° N 17:41:24 36° NE 17:41:24 36° NE
SKYMED 2 3.4 17:40:40 14° NNE 17:44:25 76° ESE 17:48:45 10° S
Cosmos 1400 Rocket 3.0 17:40:33 10° S 17:44:31 48° E 17:44:48 47° E
Timation 1 Rocket 4.2 17:39:11 10° NNW 17:45:12 80° ENE 17:51:12 10° SSE
GENESIS II 4.4 17:42:24 10° SW 17:46:27 73° NW 17:48:01 36° NNE
Meteor 1-14 Rocket 4.3 17:44:19 10° N 17:50:16 58° ENE 17:56:07 10° SSE
Cosmos 1844 Rocket 3.7 17:48:02 10° N 17:51:58 26° NE 17:51:58 26° NE
NOAA 15 4.5 17:48:21 10° SSE 17:53:38 81° ENE 17:58:56 10° NNW
Ariane Rocket 3.7 17:55:50 35° NE 17:55:50 35° NE 17:59:32 10° N
FengYun 1-2 T 4.4 17:51:21 10° S 17:56:51 73° WSW 18:02:21 10° NNW
Cosmos 2278 Rocket 4.3 18:02:49 10° N 18:03:29 11° NNE 18:03:29 11° NNE
CSL-04 Debris 4.2 18:01:33 10° SSE 18:07:03 84° WSW 18:12:35 10° NNW
Cosmos 1048 Rocket 4.4 18:03:17 10° S 18:07:36 45° SE 18:07:36 45° SE
USA 215 3.8 18:07:26 35° NE 18:09:11 42° NNE 18:15:15 10° NW
NOAA 11 4.0 18:04:57 10° SSE 18:10:21 75° ENE 18:15:48 10° N
BREEZE-M R/B 3.9 18:09:04 10° SW 18:12:42 34° S 18:12:42 34° S
CSL-04 Rocket 3.8 18:09:53 10° S 18:15:12 73° WSW 18:20:31 10° NNW
Cosmos 1606 3.8 18:13:03 10° SSW 18:16:39 42° WNW 18:18:12 27° NNW
SeaSat 1 3.0 18:12:01 10° SSE 18:16:52 58° WSW 18:21:45 10° NW
GEOS 3 Rocket 3.6 18:17:44 49° NNE 18:19:13 79° NW 18:24:29 10° SW
NOSS 3-2 (C) 4.1 18:14:39 10° NW 18:21:53 56° NE 18:23:25 49° E
DELTA 2 R/B (1) 4.3 18:17:05 10° WSW 18:22:14 38° S 18:22:39 38° SSE
COSMOS 2455 2.7 18:18:34 10° SSW 18:24:30 64° ESE 18:24:34 64° ESE
BREEZE-M DEB (TANK) 3.4 18:24:16 10° WNW 18:27:54 40° WNW 18:27:54 40° WNW
Cosmos 468 4.4 18:24:13 10° SSW 18:29:10 75° SSE 18:29:10 75° SSE
Cosmos 2360 Rocket 3.4 18:25:27 10° S 18:28:08 27° SSE 18:28:08 27° SSE
COSMO-SKYMED 1 4.0 18:29:12 15° N 18:32:17 35° WNW 18:36:14 10° SW
Cosmos 1980 Rocket 4.0 18:32:15 10° WSW 18:37:05 28° NW 18:40:55 14° N
CZ-4 R/B 3.5 18:35:13 10° SSW 18:38:43 27° W 18:42:11 10° NW
SL-16 R/B 2.4 18:34:15 10° SW 18:39:53 69° WNW 18:40:54 56° N
Cosmos 2322 Rocket 2.3 18:39:17 10° SSW 18:44:52 72° WNW 18:45:07 71° NW
Cosmos 2279 Rocket 4.2 18:43:20 10° NNW 18:49:31 67° W 18:55:41 10° S
CENTAUR R/B 3.1 18:44:20 10° NW 18:52:09 62° NE 18:52:17 62° NE
Cosmos 2263 Rocket 4.0 18:50:56 10° NW 18:55:35 28° WSW 19:00:14 10° SSW
Gblst 52 Del rocket 4.5 18:49:59 10° WNW 18:56:17 70° SW 18:56:17 70° SW
ATLAS 3B R/B 3.4 19:10:14 10° NW 19:14:36 42° NNW 19:14:36 42° NNW
ATLAS 2AS CENTAUR R/B 3.5 19:09:23 10° SSW 19:14:57 49° S 19:14:57 49° S
USA 238 DEB 4.3 19:15:56 10° NW 19:22:54 54° WSW 19:23:35 52° SW
USA 238 4.3 19:16:02 10° NW 19:23:00 54° WSW 19:23:38 53° SW
NOSS 3-2 (A) 4.4 19:17:44 10° NW 19:25:10 60° WSW 19:26:01 57° SSW
USA 215 4.5 19:54:48 35° NW 19:54:48 35° NW 19:58:20 10° NW
